Time,TemperatureF,DewpointF,PressureIn,WindDirection,WindDirectionDegrees,WindSpeedMPH,WindSpeedGustMPH,Humidity,HourlyPrecipIn,Conditions,Clouds,dailyrainin,SoftwareType,DateUTC
2013-07-02 00:05:00,68.3,68.3,29.87,SW,226,0.0,3.0,100,0.00,,,0.56,Wunderground v.1.15,2013-07-02 04:05:00,
2013-07-02 00:10:00,68.3,68.3,29.87,SW,226,0.0,3.0,100,0.00,,,0.56,Wunderground v.1.15,2013-07-02 04:10:00,
2013-07-02 00:15:00,68.3,68.3,29.87,SW,226,0.0,3.0,100,0.00,,,0.56,Wunderground v.1.15,2013-07-02 04:15:00,
2013-07-02 00:20:00,68.2,68.2,29.87,SW,224,0.0,3.0,100,0.00,,,0.56,Wunderground v.1.15,2013-07-02 04:20:00,
2013-07-02 00:30:00,68.2,68.2,29.88,SW,224,0.0,3.0,100,0.00,,,0.56,Wunderground v.1.15,2013-07-02 04:30:00,
2013-07-02 00:40:00,68.2,68.2,29.87,SW,226,0.0,3.0,100,0.00,,,0.56,Wunderground v.1.15,2013-07-02 04:40:00,
2013-07-02 00:45:00,68.1,68.1,29.87,SW,225,0.0,3.0,100,0.00,,,0.56,Wunderground v.1.15,2013-07-02 04:45:00,
2013-07-02 00:55:00,67.6,67.6,29.87,SW,225,0.0,3.0,100,0.00,,,0.56,Wunderground v.1.15,2013-07-02 04:55:00,
2013-07-02 01:05:00,67.2,67.2,29.87,SW,225,0.0,3.0,100,0.00,,,0.56,Wunderground v.1.15,2013-07-02 05:05:00,
2013-07-02 01:15:00,67.0,67.0,29.87,SW,225,0.0,3.0,100,0.00,,,0.56,Wunderground v.1.15,2013-07-02 05:15:00,
2013-07-02 01:20:00,66.8,66.8,29.87,SW,225,0.0,3.0,100,0.00,,,0.56,Wunderground v.1.15,2013-07-02 05:20:00,
2013-07-02 01:30:00,66.6,66.6,29.87,SW,224,0.0,3.0,100,0.00,,,0.56,Wunderground v.1.15,2013-07-02 05:30:00,
2013-07-02 01:35:00,66.7,66.7,29.87,SW,224,0.0,3.0,100,0.00,,,0.56,Wunderground v.1.15,2013-07-02 05:35:00,
2013-07-02 01:40:00,66.7,66.7,29.87,SW,224,0.0,3.0,100,0.00,,,0.56,Wunderground v.1.15,2013-07-02 05:40:00,
2013-07-02 01:50:00,66.8,66.8,29.86,SW,224,0.0,3.0,100,0.00,,,0.56,Wunderground v.1.15,2013-07-02 05:50:00,
2013-07-02 02:00:00,66.6,66.6,29.87,SW,224,0.0,3.0,100,0.00,,,0.56,Wunderground v.1.15,2013-07-02 06:00:00,
2013-07-02 02:10:00,66.5,66.5,29.86,SW,224,0.0,3.0,100,0.00,,,0.00,Wunderground v.1.15,2013-07-02 06:10:00,
2013-07-02 02:20:00,66.7,66.7,29.86,SW,224,0.0,3.0,100,0.00,,,0.00,Wunderground v.1.15,2013-07-02 06:20:00,
2013-07-02 02:25:00,66.7,66.7,29.86,SW,224,0.0,3.0,100,0.00,,,0.00,Wunderground v.1.15,2013-07-02 06:25:00,
2013-07-02 02:35:00,66.9,66.9,29.86,SW,224,0.0,3.0,100,0.00,,,0.00,Wunderground v.1.15,2013-07-02 06:35:00,
2013-07-02 02:45:00,66.9,66.9,29.86,SW,224,0.0,3.0,100,0.00,,,0.00,Wunderground v.1.15,2013-07-02 06:45:00,
2013-07-02 02:55:00,66.5,66.5,29.86,SW,224,0.0,3.0,100,0.00,,,0.00,Wunderground v.1.15,2013-07-02 06:55:00,
2013-07-02 03:05:00,66.3,66.3,29.86,SW,224,0.0,3.0,100,0.00,,,0.00,Wunderground v.1.15,2013-07-02 07:05:00,
2013-07-02 03:15:00,66.1,66.1,29.86,SW,224,0.0,3.0,100,0.00,,,0.00,Wunderground v.1.15,2013-07-02 07:15:00,
2013-07-02 03:20:00,66.2,66.2,29.86,SW,224,0.0,3.0,100,0.00,,,0.00,Wunderground v.1.15,2013-07-02 07:20:00,
2013-07-02 03:30:00,66.0,66.0,29.86,SW,224,0.0,3.0,100,0.00,,,0.00,Wunderground v.1.15,2013-07-02 07:30:00,
2013-07-02 03:40:00,65.7,65.7,29.86,SW,224,0.0,3.0,100,0.00,,,0.00,Wunderground v.1.15,2013-07-02 07:40:00,
2013-07-02 03:44:00,65.6,65.6,29.86,SW,224,0.0,3.0,100,0.00,,,0.00,Wunderground v.1.15,2013-07-02 07:44:00,
2013-07-02 03:50:00,65.8,65.8,29.86,SW,224,0.0,3.0,100,0.00,,,0.00,Wunderground v.1.15,2013-07-02 07:50:00,
2013-07-02 04:00:00,65.8,65.8,29.86,SW,224,0.0,3.0,100,0.00,,,0.00,Wunderground v.1.15,2013-07-02 08:00:00,
2013-07-02 04:10:00,65.7,65.7,29.86,SW,224,0.0,3.0,100,0.00,,,0.00,Wunderground v.1.15,2013-07-02 08:10:00,
2013-07-02 04:20:00,65.6,65.6,29.86,SW,224,0.0,3.0,100,0.00,,,0.00,Wunderground v.1.15,2013-07-02 08:20:00,
2013-07-02 04:25:00,65.5,65.5,29.87,SW,224,0.0,3.0,100,0.00,,,0.00,Wunderground v.1.15,2013-07-02 08:25:00,
2013-07-02 04:35:00,65.5,65.5,29.87,SW,224,0.0,3.0,100,0.00,,,0.00,Wunderground v.1.15,2013-07-02 08:35:00,
2013-07-02 04:45:00,65.5,65.5,29.86,SW,224,0.0,3.0,100,0.00,,,0.00,Wunderground v.1.15,2013-07-02 08:45:00,
2013-07-02 04:55:00,65.2,65.2,29.86,SW,224,0.0,3.0,100,0.00,,,0.00,Wunderground v.1.15,2013-07-02 08:55:00,
2013-07-02 05:05:00,65.1,65.1,29.87,SW,225,0.0,3.0,100,0.00,,,0.00,Wunderground v.1.15,2013-07-02 09:05:00,
2013-07-02 05:15:00,65.1,65.1,29.87,SW,225,0.0,3.0,100,0.00,,,0.00,Wunderground v.1.15,2013-07-02 09:15:00,
2013-07-02 05:25:00,65.1,65.1,29.87,SW,225,0.0,3.0,100,0.00,,,0.00,Wunderground v.1.15,2013-07-02 09:25:00,
2013-07-02 05:35:00,65.2,65.2,29.88,SW,225,0.0,3.0,100,0.00,,,0.00,Wunderground v.1.15,2013-07-02 09:35:00,
2013-07-02 05:45:00,65.1,65.1,29.88,SW,224,0.0,3.0,100,0.00,,,0.00,Wunderground v.1.15,2013-07-02 09:45:00,
2013-07-02 05:50:00,65.0,65.0,29.88,SW,224,0.0,3.0,100,0.00,,,0.00,Wunderground v.1.15,2013-07-02 09:50:00,
2013-07-02 06:00:00,64.9,64.9,29.88,SW,225,0.0,3.0,100,0.00,,,0.01,Wunderground v.1.15,2013-07-02 10:00:00,
2013-07-02 06:10:00,64.5,64.5,29.88,SW,225,0.0,3.0,100,0.00,,,0.01,Wunderground v.1.15,2013-07-02 10:10:00,
2013-07-02 06:15:00,64.3,64.3,29.88,SW,226,0.0,3.0,100,0.00,,,0.01,Wunderground v.1.15,2013-07-02 10:15:00,
2013-07-02 06:20:00,64.3,64.3,29.89,SW,225,0.0,3.0,100,0.00,,,0.01,Wunderground v.1.15,2013-07-02 10:20:00,
2013-07-02 06:25:00,64.3,64.3,29.89,SW,225,0.0,3.0,100,0.00,,,0.01,Wunderground v.1.15,2013-07-02 10:25:00,
2013-07-02 06:35:00,64.4,64.4,29.89,SW,225,0.0,3.0,100,0.00,,,0.01,Wunderground v.1.15,2013-07-02 10:35:00,
2013-07-02 06:45:00,64.5,64.5,29.90,SW,226,0.0,3.0,100,0.00,,,0.01,Wunderground v.1.15,2013-07-02 10:45:00,
2013-07-02 06:50:00,64.6,64.6,29.90,SW,226,0.0,3.0,100,0.00,,,0.01,Wunderground v.1.15,2013-07-02 10:50:00,
2013-07-02 07:00:00,64.7,64.7,29.90,SW,224,0.0,3.0,100,0.00,,,0.01,Wunderground v.1.15,2013-07-02 11:00:00,
2013-07-02 07:10:00,64.9,64.9,29.90,SW,224,0.0,3.0,100,0.00,,,0.01,Wunderground v.1.15,2013-07-02 11:10:00,
2013-07-02 07:15:00,65.0,65.0,29.91,SW,224,0.0,3.0,100,0.00,,,0.01,Wunderground v.1.15,2013-07-02 11:15:00,
2013-07-02 07:25:00,65.1,65.1,29.91,SW,224,0.0,3.0,100,0.00,,,0.01,Wunderground v.1.15,2013-07-02 11:25:00,
2013-07-02 07:35:00,65.4,65.4,29.91,SW,224,0.0,3.0,100,0.00,,,0.01,Wunderground v.1.15,2013-07-02 11:35:00,
2013-07-02 08:30:00,66.8,66.8,29.92,SW,225,0.0,0.0,100,0.00,,,0.01,Wunderground v.1.15,2013-07-02 12:30:00,
2013-07-02 08:40:00,67.6,67.6,29.92,SW,224,0.0,0.0,100,0.00,,,0.01,Wunderground v.1.15,2013-07-02 12:40:00,
2013-07-02 08:50:00,67.5,67.5,29.92,West,281,0.0,0.0,100,0.00,,,0.01,Wunderground v.1.15,2013-07-02 12:50:00,
2013-07-02 08:55:00,67.7,67.7,29.92,West,281,0.0,0.0,100,0.00,,,0.01,Wunderground v.1.15,2013-07-02 12:55:00,
2013-07-02 09:05:00,67.9,67.9,29.93,SW,236,0.0,0.0,100,0.00,,,0.01,Wunderground v.1.15,2013-07-02 13:05:00,
2013-07-02 09:15:00,68.1,68.1,29.93,SW,233,0.0,0.0,100,0.00,,,0.01,Wunderground v.1.15,2013-07-02 13:15:00,
2013-07-02 09:25:00,67.8,67.8,29.93,NNE,13,0.0,2.0,100,0.00,,,0.01,Wunderground v.1.15,2013-07-02 13:25:00,
2013-07-02 09:35:00,68.0,68.0,29.93,SSE,152,0.0,0.0,100,0.00,,,0.01,Wunderground v.1.15,2013-07-02 13:35:00,
2013-07-02 09:45:00,68.4,68.4,29.93,SSW,208,0.0,1.0,100,0.00,,,0.01,Wunderground v.1.15,2013-07-02 13:45:00,
2013-07-02 09:55:00,68.8,68.8,29.93,SSE,149,1.0,1.0,100,0.00,,,0.01,Wunderground v.1.15,2013-07-02 13:55:00,
2013-07-02 10:00:00,68.9,68.6,29.93,SE,136,1.0,1.0,99,0.00,,,0.01,Wunderground v.1.15,2013-07-02 14:00:00,
2013-07-02 10:10:00,69.1,68.8,29.94,SE,146,0.0,0.0,99,0.00,,,0.01,Wunderground v.1.15,2013-07-02 14:10:00,
2013-07-02 10:20:00,69.6,69.3,29.94,SE,146,0.0,0.0,99,0.00,,,0.01,Wunderground v.1.15,2013-07-02 14:20:00,
2013-07-02 10:25:00,69.9,69.6,29.94,SE,146,0.0,0.0,99,0.00,,,0.01,Wunderground v.1.15,2013-07-02 14:25:00,
2013-07-02 10:35:00,70.3,70.0,29.94,SE,146,0.0,0.0,99,0.00,,,0.01,Wunderground v.1.15,2013-07-02 14:35:00,
2013-07-02 10:45:00,70.9,70.3,29.94,SSE,148,0.0,0.0,98,0.00,,,0.01,Wunderground v.1.15,2013-07-02 14:45:00,
2013-07-02 10:50:00,71.3,70.4,29.94,SE,146,0.0,0.0,97,0.00,,,0.01,Wunderground v.1.15,2013-07-02 14:50:00,
2013-07-02 11:00:00,71.5,69.7,29.94,West,281,0.0,0.0,94,0.00,,,0.01,Wunderground v.1.15,2013-07-02 15:00:00,
2013-07-02 11:10:00,71.9,69.8,29.94,SW,218,0.0,1.0,93,0.00,,,0.01,Wunderground v.1.15,2013-07-02 15:10:00,
2013-07-02 11:15:00,72.2,70.1,29.94,SW,217,0.0,1.0,93,0.00,,,0.01,Wunderground v.1.15,2013-07-02 15:15:00,
2013-07-02 11:25:00,73.1,70.6,29.94,SSW,197,0.0,0.0,92,0.00,,,0.01,Wunderground v.1.15,2013-07-02 15:25:00,
2013-07-02 11:35:00,74.4,71.3,29.95,SSW,204,0.0,1.0,90,0.00,,,0.01,Wunderground v.1.15,2013-07-02 15:35:00,
2013-07-02 11:45:00,74.4,70.6,29.94,ENE,75,0.0,0.0,88,0.00,,,0.01,Wunderground v.1.15,2013-07-02 15:45:00,
2013-07-02 11:55:00,74.6,70.5,29.94,WNW,283,0.0,0.0,87,0.00,,,0.01,Wunderground v.1.15,2013-07-02 15:55:00,
2013-07-02 12:05:00,75.3,70.1,29.94,SW,221,1.0,4.0,84,0.00,,,0.01,Wunderground v.1.15,2013-07-02 16:05:00,
2013-07-02 12:10:00,75.5,70.3,29.95,SSW,197,1.0,1.0,84,0.00,,,0.01,Wunderground v.1.15,2013-07-02 16:10:00,
2013-07-02 12:20:00,75.5,71.0,29.94,East,101,1.0,1.0,86,0.00,,,0.01,Wunderground v.1.15,2013-07-02 16:20:00,
2013-07-02 12:30:00,75.6,70.4,29.94,SW,222,1.0,1.0,84,0.00,,,0.01,Wunderground v.1.15,2013-07-02 16:30:00,
2013-07-02 12:35:00,76.2,71.4,29.94,East,97,2.0,3.0,85,0.00,,,0.01,Wunderground v.1.15,2013-07-02 16:35:00,
2013-07-02 12:45:00,77.8,72.2,29.94,SSE,166,2.0,3.0,83,0.00,,,0.01,Wunderground v.1.15,2013-07-02 16:45:00,
2013-07-02 12:55:00,78.1,71.1,29.94,NNW,344,1.0,1.0,79,0.00,,,0.01,Wunderground v.1.15,2013-07-02 16:55:00,
2013-07-02 13:00:00,77.6,70.6,29.93,SE,145,1.0,1.0,79,0.00,,,0.01,Wunderground v.1.15,2013-07-02 17:00:00,
2013-07-02 13:10:00,77.5,70.1,29.94,ENE,78,0.0,0.0,78,0.00,,,0.01,Wunderground v.1.15,2013-07-02 17:10:00,
2013-07-02 13:20:00,76.8,70.2,29.94,SSW,212,1.0,1.0,80,0.00,,,0.01,Wunderground v.1.15,2013-07-02 17:20:00,
2013-07-02 13:30:00,76.6,71.0,29.94,SW,230,1.0,1.0,83,0.00,,,0.01,Wunderground v.1.15,2013-07-02 17:30:00,
2013-07-02 13:40:00,77.8,71.5,29.94,South,172,1.0,2.0,81,0.00,,,0.01,Wunderground v.1.15,2013-07-02 17:40:00,
2013-07-02 13:45:00,77.8,72.2,29.94,SSW,193,2.0,2.0,83,0.00,,,0.01,Wunderground v.1.15,2013-07-02 17:45:00,
2013-07-02 13:50:00,78.2,73.0,29.94,SSW,200,2.0,4.0,84,0.00,,,0.01,Wunderground v.1.15,2013-07-02 17:50:00,
2013-07-02 14:00:00,79.0,71.9,29.94,SSW,201,3.0,3.0,79,0.00,,,0.01,Wunderground v.1.15,2013-07-02 18:00:00,
2013-07-02 14:10:00,78.9,71.1,29.94,WSW,246,2.0,2.0,77,0.00,,,0.01,Wunderground v.1.15,2013-07-02 18:10:00,
2013-07-02 14:20:00,79.1,72.4,29.95,South,188,2.0,3.0,80,0.00,,,0.01,Wunderground v.1.15,2013-07-02 18:20:00,
2013-07-02 14:30:00,80.1,72.6,29.94,SSW,210,2.0,2.0,78,0.00,,,0.01,Wunderground v.1.15,2013-07-02 18:30:00,
2013-07-02 14:35:00,79.9,71.3,29.94,SSW,208,2.0,2.0,75,0.00,,,0.01,Wunderground v.1.15,2013-07-02 18:35:00,
2013-07-02 14:45:00,80.4,71.3,29.94,NW,315,1.0,2.0,74,0.00,,,0.01,Wunderground v.1.15,2013-07-02 18:45:00,
2013-07-02 14:55:00,79.8,71.2,29.93,SSW,207,1.0,1.0,75,0.00,,,0.01,Wunderground v.1.15,2013-07-02 18:55:00,
2013-07-02 15:05:00,80.7,72.4,29.93,ENE,77,1.0,4.0,76,0.00,,,0.01,Wunderground v.1.15,2013-07-02 19:05:00,
2013-07-02 15:15:00,81.8,72.7,29.93,SW,236,1.0,2.0,74,0.00,,,0.01,Wunderground v.1.15,2013-07-02 19:15:00,
2013-07-02 15:25:00,82.3,72.4,29.93,SW,234,2.0,2.0,72,0.00,,,0.01,Wunderground v.1.15,2013-07-02 19:25:00,
2013-07-02 15:35:00,82.5,73.4,29.93,West,269,2.0,2.0,74,0.00,,,0.01,Wunderground v.1.15,2013-07-02 19:35:00,
2013-07-02 15:45:00,83.4,73.0,29.93,SSW,193,1.0,4.0,71,0.00,,,0.01,Wunderground v.1.15,2013-07-02 19:45:00,
2013-07-02 15:50:00,83.6,71.9,29.92,SSW,201,1.0,3.0,68,0.00,,,0.01,Wunderground v.1.15,2013-07-02 19:50:00,
2013-07-02 16:00:00,83.9,72.2,29.92,SSW,210,1.0,1.0,68,0.00,,,0.01,Wunderground v.1.15,2013-07-02 20:00:00,
2013-07-02 16:05:00,84.3,72.1,29.92,WSW,242,1.0,3.0,67,0.00,,,0.01,Wunderground v.1.15,2013-07-02 20:05:00,
2013-07-02 16:15:00,84.7,70.7,29.91,WSW,256,1.0,1.0,63,0.00,,,0.01,Wunderground v.1.15,2013-07-02 20:15:00,
2013-07-02 16:25:00,84.9,72.3,29.91,SW,226,0.0,0.0,66,0.00,,,0.01,Wunderground v.1.15,2013-07-02 20:25:00,
2013-07-02 16:30:00,84.9,70.4,29.91,West,260,1.0,1.0,62,0.00,,,0.01,Wunderground v.1.15,2013-07-02 20:30:00,
2013-07-02 16:40:00,85.0,72.4,29.91,ESE,117,1.0,1.0,66,0.00,,,0.01,Wunderground v.1.15,2013-07-02 20:40:00,
2013-07-02 16:45:00,84.9,72.3,29.91,SW,231,1.0,2.0,66,0.00,,,0.01,Wunderground v.1.15,2013-07-02 20:45:00,
2013-07-02 16:55:00,83.8,71.7,29.91,SW,231,0.0,1.0,67,0.00,,,0.01,Wunderground v.1.15,2013-07-02 20:55:00,
2013-07-02 17:05:00,84.1,72.8,29.91,SW,222,1.0,1.0,69,0.00,,,0.01,Wunderground v.1.15,2013-07-02 21:05:00,
2013-07-02 17:15:00,84.1,70.6,29.91,SW,231,1.0,1.0,64,0.00,,,0.01,Wunderground v.1.15,2013-07-02 21:15:00,
2013-07-02 17:25:00,82.6,72.2,29.91,SW,225,1.0,1.0,71,0.00,,,0.01,Wunderground v.1.15,2013-07-02 21:25:00,
2013-07-02 17:35:00,82.0,72.5,29.91,SW,218,0.0,1.0,73,0.00,,,0.01,Wunderground v.1.15,2013-07-02 21:35:00,
2013-07-02 17:40:00,81.9,74.4,29.91,West,260,0.0,0.0,78,0.00,,,0.01,Wunderground v.1.15,2013-07-02 21:40:00,
2013-07-02 17:50:00,81.8,72.7,29.91,North,10,1.0,2.0,74,0.00,,,0.01,Wunderground v.1.15,2013-07-02 21:50:00,
2013-07-02 17:55:00,81.7,71.0,29.91,West,263,1.0,2.0,70,0.00,,,0.01,Wunderground v.1.15,2013-07-02 21:55:00,
2013-07-02 18:05:00,81.4,73.5,29.91,WNW,301,1.0,2.0,77,0.00,,,0.01,Wunderground v.1.15,2013-07-02 22:05:00,
2013-07-02 18:10:00,81.3,73.8,29.91,WNW,285,1.0,1.0,78,0.00,,,0.01,Wunderground v.1.15,2013-07-02 22:10:00,
2013-07-02 18:20:00,80.0,73.6,29.91,WNW,285,0.0,0.0,81,0.00,,,0.01,Wunderground v.1.15,2013-07-02 22:20:00,
2013-07-02 18:30:00,79.3,73.0,29.91,West,274,1.0,1.0,81,0.00,,,0.01,Wunderground v.1.15,2013-07-02 22:30:00,
2013-07-02 18:40:00,77.5,71.9,29.91,WNW,293,1.0,1.0,83,0.00,,,0.01,Wunderground v.1.15,2013-07-02 22:40:00,
2013-07-02 18:50:00,76.8,72.3,29.91,NW,316,1.0,1.0,86,0.00,,,0.01,Wunderground v.1.15,2013-07-02 22:50:00,
2013-07-02 19:00:00,76.7,71.5,29.91,NW,310,1.0,2.0,84,0.00,,,0.01,Wunderground v.1.15,2013-07-02 23:00:00,
2013-07-02 19:10:00,76.4,70.1,29.91,NNE,18,1.0,1.0,81,0.00,,,0.01,Wunderground v.1.15,2013-07-02 23:10:00,
2013-07-02 19:20:00,75.7,70.9,29.91,WNW,291,1.0,1.0,85,0.00,,,0.01,Wunderground v.1.15,2013-07-02 23:20:00,
2013-07-02 19:30:00,75.1,70.6,29.91,WNW,290,1.0,1.0,86,0.00,,,0.01,Wunderground v.1.15,2013-07-02 23:30:00,
2013-07-02 19:40:00,74.2,70.4,29.91,WNW,284,1.0,1.0,88,0.00,,,0.01,Wunderground v.1.15,2013-07-02 23:40:00,
2013-07-02 19:45:00,74.8,70.3,29.91,NW,305,1.0,2.0,86,0.00,,,0.01,Wunderground v.1.15,2013-07-02 23:45:00,
2013-07-02 19:55:00,74.9,70.1,29.91,WNW,291,1.0,2.0,85,0.00,,,0.01,Wunderground v.1.15,2013-07-02 23:55:00,
2013-07-02 20:00:00,75.2,70.4,29.92,WNW,291,1.0,1.0,85,0.00,,,0.01,Wunderground v.1.15,2013-07-03 00:00:00,
2013-07-02 20:10:00,74.9,70.1,29.92,WNW,295,1.0,1.0,85,0.00,,,0.01,Wunderground v.1.15,2013-07-03 00:10:00,
2013-07-02 20:20:00,74.0,70.6,29.92,WNW,295,0.0,1.0,89,0.00,,,0.01,Wunderground v.1.15,2013-07-03 00:20:00,
2013-07-02 20:30:00,73.1,70.3,29.92,WNW,295,0.0,0.0,91,0.00,,,0.01,Wunderground v.1.15,2013-07-03 00:30:00,
2013-07-02 20:35:00,72.8,70.3,29.92,WNW,295,0.0,0.0,92,0.00,,,0.01,Wunderground v.1.15,2013-07-03 00:35:00,
2013-07-02 20:45:00,72.2,70.1,29.93,WNW,295,0.0,0.0,93,0.00,,,0.01,Wunderground v.1.15,2013-07-03 00:45:00,
2013-07-02 20:55:00,71.6,69.8,29.93,WNW,295,0.0,0.0,94,0.00,,,0.01,Wunderground v.1.15,2013-07-03 00:55:00,
2013-07-02 21:05:00,71.2,69.7,29.93,WNW,295,0.0,0.0,95,0.00,,,0.01,Wunderground v.1.15,2013-07-03 01:05:00,
2013-07-02 21:10:00,70.9,69.4,29.93,WNW,295,0.0,0.0,95,0.00,,,0.01,Wunderground v.1.15,2013-07-03 01:10:00,
2013-07-02 21:15:00,70.7,69.2,29.93,WNW,295,0.0,0.0,95,0.00,,,0.01,Wunderground v.1.15,2013-07-03 01:15:00,
2013-07-02 21:20:00,70.4,69.2,29.93,WNW,295,0.0,0.0,96,0.00,,,0.01,Wunderground v.1.15,2013-07-03 01:20:00,
2013-07-02 21:25:00,70.2,69.0,29.93,WNW,295,0.0,0.0,96,0.00,,,0.01,Wunderground v.1.15,2013-07-03 01:25:00,
2013-07-02 21:30:00,70.0,68.8,29.93,WNW,295,0.0,0.0,96,0.00,,,0.01,Wunderground v.1.15,2013-07-03 01:30:00,
2013-07-02 21:35:00,69.7,68.8,29.93,WNW,295,0.0,0.0,97,0.00,,,0.01,Wunderground v.1.15,2013-07-03 01:35:00,
2013-07-02 21:45:00,69.5,68.6,29.94,WNW,295,0.0,0.0,97,0.00,,,0.01,Wunderground v.1.15,2013-07-03 01:45:00,
2013-07-02 21:50:00,69.4,68.5,29.94,WNW,295,0.0,0.0,97,0.00,,,0.01,Wunderground v.1.15,2013-07-03 01:50:00,
2013-07-02 22:10:00,68.6,68.0,29.95,WNW,295,0.0,0.0,98,0.00,,,0.01,Wunderground v.1.15,2013-07-03 02:10:00,
2013-07-02 22:15:00,68.5,67.9,29.95,WNW,295,0.0,0.0,98,0.00,,,0.01,Wunderground v.1.15,2013-07-03 02:15:00,
2013-07-02 22:20:00,68.5,67.9,29.96,WNW,295,0.0,0.0,98,0.00,,,0.01,Wunderground v.1.15,2013-07-03 02:20:00,
2013-07-02 22:25:00,68.4,68.1,29.96,WNW,295,0.0,0.0,99,0.00,,,0.01,Wunderground v.1.15,2013-07-03 02:25:00,
2013-07-02 22:30:00,68.3,67.7,29.96,WNW,295,0.0,0.0,98,0.00,,,0.01,Wunderground v.1.15,2013-07-03 02:30:00,
2013-07-02 22:35:00,68.2,67.9,29.96,WNW,295,0.0,0.0,99,0.00,,,0.01,Wunderground v.1.15,2013-07-03 02:35:00,
2013-07-02 22:40:00,68.1,67.8,29.96,WNW,295,0.0,0.0,99,0.00,,,0.01,Wunderground v.1.15,2013-07-03 02:40:00,
2013-07-02 22:50:00,68.0,67.7,29.96,WNW,295,0.0,0.0,99,0.00,,,0.01,Wunderground v.1.15,2013-07-03 02:50:00,
2013-07-02 23:15:00,67.7,67.4,29.97,WNW,295,0.0,0.0,99,0.00,,,0.01,Wunderground v.1.15,2013-07-03 03:15:00,
2013-07-02 23:20:00,67.7,67.7,29.97,WNW,295,0.0,0.0,100,0.00,,,0.01,Wunderground v.1.15,2013-07-03 03:20:00,
2013-07-02 23:30:00,67.7,67.7,29.97,NNE,20,0.0,0.0,100,0.00,,,0.01,Wunderground v.1.15,2013-07-03 03:30:00,
2013-07-02 23:35:00,67.9,67.9,29.97,NNE,20,0.0,0.0,100,0.00,,,0.01,Wunderground v.1.15,2013-07-03 03:35:00,
2013-07-02 23:40:00,68.0,68.0,29.97,NNE,20,0.0,0.0,100,0.00,,,0.01,Wunderground v.1.15,2013-07-03 03:40:00,
2013-07-02 23:50:00,68.0,68.0,29.97,NNE,20,0.0,0.0,100,0.00,,,0.01,Wunderground v.1.15,2013-07-03 03:50:00,
2013-07-02 23:55:00,67.9,67.9,29.97,NNE,20,0.0,0.0,100,0.00,,,0.01,Wunderground v.1.15,2013-07-03 03:55:00,